This is the latest recevied weather packets stored in our database for station/object N7CEE. If no packets are shown the sender has not sent any weather packets the latest 10 day(s).
| Time | Temp. | Humidity | Pressure | Rain* | Wind** | Luminosity | Snow |
|---|---|---|---|---|---|---|---|
| 1777631897 | 5° C | 38% | 1021 hPa | 0 mm | - | 0 W/m² | - |
| 1777631596 | 5° C | 36% | 1020.9 hPa | 0 mm | - | 0 W/m² | - |
| 1777631293 | 5° C | 35% | 1020.7 hPa | 0 mm | - | 0 W/m² | - |
| 1777630989 | 5.56° C | 36% | 1020.8 hPa | 0 mm | - | 0 W/m² | - |
| 1777630685 | 5.56° C | 35% | 1020.8 hPa | 0 mm | - | 0 W/m² | - |
| 1777630383 | 5.56° C | 34% | 1020.8 hPa | 0 mm | - | 0 W/m² | - |
| 1777630080 | 5.56° C | 36% | 1020.8 hPa | 0 mm | - | 0 W/m² | - |
| 1777629777 | 5.56° C | 34% | 1020.7 hPa | 0 mm | - | 0 W/m² | - |
| 1777629474 | 6.11° C | 34% | 1021 hPa | 0 mm | - | 0 W/m² | - |
| 1777629170 | 6.11° C | 31% | 1020.8 hPa | 0 mm | - | 0 W/m² | - |
| 1777628866 | 6.11° C | 33% | 1020.7 hPa | 0 mm | - | 0 W/m² | - |
| 1777628563 | 6.67° C | 32% | 1020.8 hPa | 0 mm | - | 0 W/m² | - |
| 1777628258 | 6.11° C | 34% | 1020.8 hPa | 0 mm | - | 0 W/m² | - |
| 1777627954 | 6.11° C | 33% | 1020.9 hPa | 0 mm | - | 0 W/m² | - |
| 1777627649 | 6.67° C | 32% | 1020.7 hPa | 0 mm | - | 0 W/m² | - |
| 1777627348 | 6.67° C | 31% | 1020.8 hPa | 0 mm | - | 0 W/m² | - |
| 1777627046 | 6.11° C | 32% | 1020.7 hPa | 0 mm | - | 0 W/m² | - |
| 1777626742 | 6.67° C | 34% | 1020.8 hPa | 0 mm | - | 0 W/m² | - |
| 1777626438 | 6.11° C | 33% | 1020.7 hPa | 0 mm | - | 0 W/m² | - |
| 1777626137 | 6.11° C | 34% | 1021 hPa | 0 mm | - | 0 W/m² | - |
| 1777625837 | 6.67° C | 32% | 1020.8 hPa | 0 mm | - | 0 W/m² | - |
| 1777625533 | 6.67° C | 33% | 1020.8 hPa | 0 mm | - | 0 W/m² | - |
| 1777625229 | 7.22° C | 33% | 1020.8 hPa | 0 mm | - | 0 W/m² | - |
| 1777624925 | 7.78° C | 31% | 1020.9 hPa | 0 mm | - | 0 W/m² | - |
| 1777624622 | 8.33° C | 29% | 1020.9 hPa | 0 mm | - | 0 W/m² | - |
* Rain latest hour (hover to see other rain measurements)
** Current wind speed in m/s (hover to see current wind gust speed)